Regional Weather Roundup
Issued by NWS

Home | Current Version | Previous Version | Graphics & Text | Print | Product List | Glossary On
Versions: 1 2 3 4 5 6 7 8 9 10 11 12 13 14 15 16 17 18 19 20 21 22 23 24 25 26 27 28 29 30 31 32 33 34 35 36 37 38 39 40 41 42 43 44 45 46 47 48 49 50
757
ASUS43 KMPX 270510
RWRMN
WEATHER ROUNDUP FOR MINNESOTA
NATIONAL WEATHER SERVICE TWIN CITIES/CHANHASSEN MN
1200 AM CDT SAT MAY 27 2017


NOTE: "FAIR" INDICATES FEW OR NO CLOUDS BELOW 12,000 FEET WITH NO
SIGNIFICANT WEATHER AND/OR OBSTRUCTIONS TO VISIBILITY. N/A MEANS
CURRENT SKY AND/OR WEATHER CONDITIONS ARE NOT AVAILABLE.

MNZ060>063-068>070-270600-
   Twin Cities Metro

CITY           SKY/WX    TMP DP  RH WIND       PRES   REMARKS
TWIN CITIES    CLOUDY    63  46  54 NW7       29.83R
ST PAUL        CLOUDY    62  48  60 CALM      29.84R
CRYSTAL        CLEAR     62  45  53 W6        29.82R
BLAINE         CLEAR     63  48  59 W6        29.83S
LAKEVILLE      CLOUDY    57  50  77 CALM      29.84S
EDEN PRAIRIE   CLEAR     63  46  54 NW7       29.83R
SOUTH ST PAUL  CLOUDY    62  47  58 W5        29.83R
LAKE ELMO      FAIR      61  48  63 CALM      29.84R
$$
MNZ001>005-007-008-013>017-022>024-027-028-270600-
   Northwest Minnesota

CITY           SKY/WX    TMP DP  RH WIND       PRES   REMARKS
BEMIDJI        CLEAR     53  44  71 SW6       29.80S
HALLOCK        CLEAR     48  37  66 S7        29.74S
ROSEAU         CLEAR     55  46  71 SW6       29.74S
WARROAD        CLEAR     54  46  76 SW6       29.74F
THIEF RVR FALL CLEAR     54  42  64 SW9       29.79R
CROOKSTON      CLEAR     55  43  62 W7        29.79S
FOSSTON        CLEAR     50  43  76 SW5       29.81R
DETROIT LAKES  PTCLDY    54  45  71 SW5       29.84R
MOORHEAD       CLOUDY    55  43  62 SW6       29.83S
PARK RAPIDS    PTCLDY    52  41  66 S3        29.82S
MAHNOMEN       FAIR      52  43  71 SW6       29.81S
$$
MNZ006-009>011-018-025>026-270600-
   North Central Minnesota

CITY           SKY/WX    TMP DP  RH WIND       PRES   REMARKS
BAUDETTE       CLEAR     53  43  68 SW5       29.74F
FLAG ISLAND    CLEAR     57  48  72 SW6       29.71F
INTL FALLS     CLEAR     57  43  59 W5        29.76R
WASKISH        CLEAR     55  45  67 S3        29.77S
BIG FORK       CLEAR     50  43  76 CALM      29.79S
LONGVILLE      CLEAR     52  46  82 CALM      29.82S
GRAND RAPIDS   CLEAR     58  45  62 W5        29.82R
CRANE LAKE     MOCLDY    50  50 100 CALM      29.78R
ORR            CLEAR     57  43  58 W3        29.76R
COOK           CLEAR     54  46  76 CALM      29.79R
WALKER         FAIR      51  44  79 CALM      29.81S
$$
MNZ012-019>021-037-270600-
   Northeast Minnesota

CITY           SKY/WX    TMP DP  RH WIND       PRES   REMARKS
DULUTH         PTCLDY    51  49  92 CALM      29.79S
ELY            PTCLDY    54  52  94 CALM      29.77S
HIBBING        CLEAR     47  45  93 CALM      29.79R
EVELETH        MOCLDY    53  45  75 CALM      29.80R
DULUTH HARBOR  CLEAR     46  45  93 CALM      29.80S
TWO HARBORS    PTCLDY    54  48  82 CALM      29.77S
SILVER BAY     PTCLDY    50  50 100 CALM      29.77S FOG
GRAND MARAIS     N/A     45  43  93 CALM      29.77S
G MARAIS ARPRT CLOUDY    52  46  82 NE5       29.80S
$$
MNZ029>031-032-039>041-046>048-054>057-064-270600-
   West Central Minnesota

CITY           SKY/WX    TMP DP  RH WIND       PRES   REMARKS
FERGUS FALLS   CLEAR     55  43  62 CALM      29.83S
WHEATON        CLOUDY    54  43  66 SW5       29.87S
MORRIS         CLOUDY    55  46  71 W5        29.85F
ALEXANDRIA     CLOUDY    52  44  74 W5        29.86S
ELBOW LAKE     FAIR      52  45  76 CALM      29.85F
WADENA         CLEAR     52  43  71 SW3       29.84S
GLENWOOD       CLOUDY    54  46  76 W3        29.86F
APPLETON       CLEAR     55  45  67 CALM      29.86S
BENSON         CLEAR     54  45  71 CALM      29.87F
ORTONVILLE     CLOUDY    55  46  71 SW3       29.86S
MADISON        CLEAR     57  50  77 W3        29.87S
WILLMAR        FAIR      57  46  67 NW5       29.87F
$$
MNZ033>034-036-042>043-049>051-058-059-270600-
   Central Minnesota

CITY           SKY/WX    TMP DP  RH WIND       PRES   REMARKS
ST CLOUD       CLOUDY    56  47  71 W6        29.84R
SAUK CENTRE    FAIR      53  46  75 W5        29.86R
PAYNESVILLE    CLEAR     53  45  74 W5        29.87R
AITKIN         PTCLDY    55  45  67 CALM      29.81R
PINE RIVER     PTCLDY    52  45  76 CALM      29.86S
BRAINERD       PTCLDY    59  44  57 W6        29.83R
STAPLES        CLOUDY    52  43  71 SW3       29.84S
LONG PRAIRIE   FAIR      55  43  62 SW5       29.86R
LITTLE FALLS   CLOUDY    54  43  66 CALM      29.84S
LITCHFIELD     PTCLDY    61  48  63 CALM      29.86S
BUFFALO        CLOUDY    60  47  62 SW3       29.85R
MAPLE LAKE     CLOUDY    57  48  73 CALM      29.86R
HUTCHINSON     CLEAR     61  48  62 W5        29.87R
$$
MNZ037-044-045-052-053-270600-
   East Central Minnesota

CITY           SKY/WX    TMP DP  RH WIND       PRES   REMARKS
PRINCETON      CLEAR     55  48  76 CALM      29.83S
MORA           CLEAR     55  46  71 W3        29.84R
CAMBRIDGE      CLEAR     61  46  59 W3        29.81S
RUSH CITY      MOCLDY    58  48  70 W3        29.82R
MOOSE LAKE     PTCLDY    50  46  87 CALM      29.79R
HINCKLEY       FAIR      55  50  82 W3        29.81S
CLOQUET        CLEAR     46  45  93 CALM      29.80S FOG
MCGREGOR       CLOUDY    59  45  58 W5        29.81S
$$
MNZ071>073-080-081-089-090-097-098-270600-
   Southwest Minnesota

CITY           SKY/WX    TMP DP  RH WIND       PRES   REMARKS
MONTEVIDEO     CLEAR     55  45  67 CALM      29.87S
CANBY          CLEAR     56  47  71 CALM      29.89S
MARSHALL       CLEAR     56  47  71 W6        29.88F
REDWOOD FALLS  CLOUDY    59  44  57 NW6       29.86S
OLIVIA         CLEAR     59  45  58 NW6       29.86S
PIPESTONE      CLEAR     59  39  47 CALM      29.89S
WINDOM         CLEAR     57  45  62 CALM      29.88F
WORTHINGTON    CLEAR     57  43  59 W7        29.90S
JACKSON        CLEAR     55  45  67 W3        29.89F
TRACY          CLEAR     60  47  62 W5        29.89S
SLAYTON        CLEAR     53  45  72 W5        29.90S
$$
MNZ065>067-074>077-082>085-091>093-270600-
   South Central Minnesota

CITY           SKY/WX    TMP DP  RH WIND       PRES   REMARKS
MANKATO        PTCLDY    63  47  55 CALM      29.86R
NEW ULM        CLOUDY    57  46  67 W9        29.86R
ST JAMES       CLEAR     61  46  59 W8        29.87S
FAIRMONT       PTCLDY    62  45  53 W7        29.88R
GLENCOE        CLEAR     61  51  67 W6        29.85R
FARIBAULT      CLOUDY    57  52  82 W3        29.86R
OWATONNA       CLOUDY    57  48  72 CALM      29.86R
WASECA         CLOUDY    59  46  63 CALM      29.88R
ALBERT LEA     CLOUDY    61  54  77 CALM      29.87R
$$
MNZ078>079-086>088-094>096-270600-
   Southeast Minnesota

CITY           SKY/WX    TMP DP  RH WIND       PRES   REMARKS
ROCHESTER      CLEAR     61  58  90 SW12      29.88R
RED WING       CLOUDY    63  57  82 CALM      29.83R
STANTON        CLOUDY    61  49  65 S3        29.84R
DODGE CENTER   CLEAR     61  54  77 SW5       29.87R
WINONA         MOCLDY    63  55  77 CALM      29.86R
AUSTIN         CLEAR     61  55  82 CALM      29.87R
PRESTON        CLEAR     59  56  88 SW7       29.88R
$$
ABBREVIATIONS USED IN REMARKS
   TC - TEMPERATURES IN CELSIUS
  WCI - WIND CHILL INDEX
   HX - HEAT INDEX
  VSB - VISIBILITY
$$




USA.gov is the U.S. government's official web portal to all federal, state and local government web resources and services.